Weather History for Port Isabel, TX

Change the Weather History Date:

Thursday, March 29, 2012

  Actual Average Record
Temperature  
Mean Temperature 78 °F -  
Max Temperature 86 °F - - ()
Min Temperature 73 °F - - ()
Cooling Degree Days 14    
Growing Degree Days 28 (Base 50)    
Moisture  
Dew Point 71 °F    
Average Humidity 82    
Maximum Humidity 94    
Minimum Humidity 63    
Precipitation  
Precipitation 0.17 in - - ()
Sea Level Pressure  
Sea Level Pressure 29.87 in    
Wind  
Wind Speed 13 mph (SE)    
Max Wind Speed 23 mph    
Max Gust Speed 30 mph    
Visibility 7 miles    
Events Rain , Thunderstorm    
T = Trace of Precipitation, MM = Missing Value Source: NWS Daily Summary

Daily Weather History Graph

Daily Weather History Graph

Search for Another Location

Airport:

Trip Planner

Search our weather history database for the weather conditions in past years. The results will help you decide how hot, cold, wet, or windy it might be!

Date:

Astronomy

Mar. 29, 2012 Rise Set
Actual Time 7:23 AM CDT 7:45 PM CDT
Civil Twilight 6:59 AM CDT 8:08 PM CDT
Nautical Twilight 6:32 AM CDT 8:35 PM CDT
Astronomical Twilight 6:05 AM CDT 9:02 PM CDT
Moon 12:01 PM CDT (3/29) 1:09 AM CDT (3/29)
Length of Visible Light 13h 08m
Length of Day
12h 22m
Waxing Crescent, 39% of the Moon is Illuminated
Mar 29
Waxing Crescent
Mar 30
First Quarter
Apr 6
Full
Apr 13
Last Quarter
Apr 21
New

Hourly Weather History & Observations

Time (CDT) Temp. Heat Index Dew Point Humidity Pressure Visibility Wind Dir Wind Speed Gust Speed Precip Events Conditions
12:53 AM 75.0 °F - 71.1 °F 87% 29.93 in 8.0 mi ESE 13.8 mph - N/A   Scattered Clouds
1:11 AM 75.2 °F - 71.6 °F 89% 29.93 in 8.0 mi ESE 13.8 mph - N/A   Mostly Cloudy
1:21 AM 73.4 °F - 71.6 °F 94% 29.93 in 8.0 mi SE 11.5 mph - N/A   Mostly Cloudy
1:34 AM 73.4 °F - 71.6 °F 94% 29.92 in 8.0 mi SE 13.8 mph - N/A   Scattered Clouds
1:53 AM 73.9 °F - 71.1 °F 91% 29.91 in 8.0 mi SE 12.7 mph - N/A   Clear
2:51 AM 73.4 °F - 71.6 °F 94% 29.90 in 7.0 mi SSE 10.4 mph - N/A   Partly Cloudy
2:53 AM 73.9 °F - 71.1 °F 91% 29.90 in 7.0 mi SSE 10.4 mph - N/A   Partly Cloudy
3:07 AM 75.2 °F - 71.6 °F 89% 29.90 in 7.0 mi South 8.1 mph - N/A   Mostly Cloudy
3:53 AM 73.9 °F - 71.1 °F 91% 29.87 in 7.0 mi South 6.9 mph - N/A   Overcast
4:53 AM 75.0 °F - 72.0 °F 90% 29.86 in 7.0 mi South 8.1 mph - N/A   Overcast
5:24 AM 75.2 °F - 71.6 °F 89% 29.84 in 7.0 mi SSE 6.9 mph - N/A   Overcast
5:31 AM 75.2 °F - 71.6 °F 89% 29.84 in 7.0 mi SSE 6.9 mph - N/A   Overcast
5:53 AM 75.0 °F - 72.0 °F 90% 29.84 in 7.0 mi SSE 9.2 mph - N/A   Overcast
6:42 AM 75.2 °F - 71.6 °F 89% 29.85 in 6.0 mi South 10.4 mph - N/A   Overcast
6:53 AM 75.0 °F - 71.1 °F 87% 29.85 in 6.0 mi South 12.7 mph - N/A   Overcast
7:53 AM 75.0 °F - 72.0 °F 90% 29.87 in 5.0 mi SSE 8.1 mph - N/A   Overcast
8:53 AM 75.9 °F - 72.0 °F 87% 29.88 in 5.0 mi South 10.4 mph - N/A   Overcast
9:53 AM 79.0 °F - 72.0 °F 79% 29.89 in 6.0 mi SSE 12.7 mph - N/A   Haze
10:03 AM 78.8 °F - 71.6 °F 78% 29.90 in 6.0 mi SSE 12.7 mph - N/A   Haze
10:53 AM 82.0 °F 85.9 °F 70.0 °F 67% 29.90 in 7.0 mi SSE 12.7 mph - N/A   Mostly Cloudy
11:48 AM 82.4 °F 87.2 °F 71.6 °F 70% 29.90 in 7.0 mi SE 16.1 mph - N/A   Mostly Cloudy
11:53 AM 82.0 °F 86.7 °F 72.0 °F 71% 29.89 in 7.0 mi SE 16.1 mph - N/A   Mostly Cloudy
12:53 PM 84.9 °F 90.7 °F 72.0 °F 65% 29.86 in 7.0 mi SE 17.3 mph 26.5 mph N/A   Mostly Cloudy
1:04 PM 84.2 °F 89.6 °F 71.6 °F 66% 29.86 in 7.0 mi SE 21.9 mph 27.6 mph N/A   Mostly Cloudy
1:40 PM 82.4 °F 87.2 °F 71.6 °F 70% 29.85 in 7.0 mi SE 23.0 mph 29.9 mph N/A   Mostly Cloudy
1:48 PM 84.2 °F 89.6 °F 71.6 °F 66% 29.85 in 7.0 mi SE 21.9 mph 29.9 mph N/A   Mostly Cloudy
1:53 PM 84.9 °F 90.1 °F 71.1 °F 63% 29.85 in 7.0 mi SE 21.9 mph - N/A   Mostly Cloudy
2:34 PM 84.2 °F 89.6 °F 71.6 °F 66% 29.83 in 7.0 mi SE 18.4 mph 27.6 mph N/A   Mostly Cloudy
2:41 PM 84.2 °F 89.6 °F 71.6 °F 66% 29.83 in 7.0 mi SE 23.0 mph 28.8 mph N/A   Mostly Cloudy
2:53 PM 84.0 °F 88.4 °F 70.0 °F 63% 29.82 in 7.0 mi SE 18.4 mph 29.9 mph N/A   Mostly Cloudy
3:53 PM 84.0 °F 88.4 °F 70.0 °F 63% 29.80 in 7.0 mi SE 23.0 mph 28.8 mph N/A   Mostly Cloudy
4:53 PM 82.9 °F 87.0 °F 70.0 °F 65% 29.77 in 7.0 mi SE 23.0 mph 27.6 mph N/A   Scattered Clouds
5:53 PM 81.0 °F 84.9 °F 71.1 °F 72% 29.77 in 8.0 mi ESE 20.7 mph 28.8 mph N/A   Partly Cloudy
6:38 PM 78.8 °F - 71.6 °F 78% 29.79 in 8.0 mi ESE 18.4 mph - N/A   Mostly Cloudy
6:53 PM 78.1 °F - 71.1 °F 79% 29.80 in 8.0 mi ESE 16.1 mph - N/A   Scattered Clouds
7:53 PM 75.9 °F - 72.0 °F 87% 29.84 in 8.0 mi SE 13.8 mph - N/A   Scattered Clouds
7:59 PM 75.2 °F - 71.6 °F 89% 29.84 in 8.0 mi ESE 18.4 mph - N/A   Mostly Cloudy
8:36 PM 75.2 °F - 71.6 °F 89% 29.82 in 8.0 mi SE 17.3 mph - N/A   Scattered Clouds
8:53 PM 75.9 °F - 72.0 °F 87% 29.82 in 8.0 mi ESE 16.1 mph 25.3 mph 0.00 in Rain Light Rain
9:36 PM 75.2 °F - 71.6 °F 89% 29.86 in 7.0 mi East 11.5 mph - 0.00 in Rain Light Rain
9:48 PM 75.2 °F - 71.6 °F 89% 29.86 in 8.0 mi ESE 15.0 mph - 0.00 in Rain Light Rain
9:53 PM 75.9 °F - 72.0 °F 87% 29.87 in 8.0 mi SE 15.0 mph - 0.00 in Rain Light Rain
10:04 PM 75.2 °F - 71.6 °F 89% 29.88 in 7.0 mi SE 12.7 mph - 0.00 in Rain , Thunderstorm Light Rain
10:14 PM 75.2 °F - 71.6 °F 89% 29.89 in 6.0 mi SE 11.5 mph - 0.01 in Rain , Thunderstorm Rain
10:24 PM 75.2 °F - 71.6 °F 89% 29.91 in 7.0 mi SSE 8.1 mph - 0.02 in Rain Light Rain
10:38 PM 75.2 °F - 71.6 °F 89% 29.93 in 7.0 mi South 6.9 mph - 0.02 in Rain , Thunderstorm Light Rain
10:53 PM 75.0 °F - 72.0 °F 90% 29.91 in 5.0 mi SSE 8.1 mph - 0.06 in Rain Rain
11:10 PM 75.2 °F - 71.6 °F 89% 29.91 in 5.0 mi SSE 4.6 mph - 0.03 in Rain , Thunderstorm Light Rain
11:35 PM 75.2 °F - 71.6 °F 89% 29.90 in 5.0 mi Calm Calm - 0.08 in Rain Rain
11:44 PM 73.4 °F - 71.6 °F 94% 29.91 in 6.0 mi North 5.8 mph - 0.10 in Rain , Thunderstorm Light Thunderstorms and Rain
11:53 PM 73.9 °F - 72.0 °F 93% 29.92 in 6.0 mi NNW 6.9 mph - 0.11 in Rain , Thunderstorm Light Rain